VIR731 EDDF-EDDL

Flight info

Callsign VIR731
Flight time 0h 46m
Altitude 22000
Route MARUN7F/25C MARUN Y152 ARPEG Z850 ADEMI T854 DOMUX DOMUX1A
Aircraft A35K/H-SDE2E3GHIJ3J4J5LM1ORWXY/LB1D1

Departure

Time 2026-05-04 18:27
Airport Frankfurt Main Airport (EDDF)

Arrival

Time 2026-05-04 19:14
Airport Düsseldorf Airport (EDDL)
Time Latitude Longitude Altitude Speed Heading
2026-05-04 17:36 50.03526 8.58587 363 ft 0 kts 115°
2026-05-04 18:11 50.03533 8.58566 363 ft 4 kts 115°
2026-05-04 18:11 50.03544 8.58528 363 ft 4 kts 115°
2026-05-04 18:11 50.03555 8.58491 363 ft 3 kts 115°
2026-05-04 18:12 50.03561 8.58458 363 ft 4 kts 70°
2026-05-04 18:12 50.03545 8.58430 363 ft 4 kts 29°
2026-05-04 18:12 50.03526 8.58415 363 ft 1 kts 24°
2026-05-04 18:12 50.03523 8.58413 363 ft 0 kts 24°
2026-05-04 18:16 50.03529 8.58417 363 ft 3 kts 24°
2026-05-04 18:16 50.03557 8.58436 363 ft 6 kts 24°
2026-05-04 18:17 50.03582 8.58453 363 ft 0 kts 24°
2026-05-04 18:17 50.03583 8.58454 363 ft 1 kts 24°
2026-05-04 18:18 50.03599 8.58465 363 ft 4 kts 24°
2026-05-04 18:18 50.03625 8.58467 363 ft 3 kts 348°
2026-05-04 18:18 50.03641 8.58449 363 ft 2 kts 314°
2026-05-04 18:18 50.03651 8.58386 364 ft 12 kts 270°
2026-05-04 18:19 50.03609 8.58165 364 ft 12 kts 263°
2026-05-04 18:19 50.03646 8.58087 366 ft 9 kts 329°
2026-05-04 18:19 50.03689 8.58059 367 ft 0 kts 338°
2026-05-04 18:21 50.03694 8.58056 367 ft 2 kts 338°
2026-05-04 18:21 50.03714 8.58044 368 ft 4 kts 339°
2026-05-04 18:21 50.03772 8.58010 369 ft 14 kts 339°
2026-05-04 18:21 50.03892 8.57940 370 ft 21 kts 340°
2026-05-04 18:22 50.03996 8.57882 372 ft 14 kts 345°
2026-05-04 18:22 50.04073 8.57924 372 ft 12 kts 48°
2026-05-04 18:22 50.04106 8.58043 373 ft 13 kts 70°
2026-05-04 18:22 50.04140 8.58189 374 ft 16 kts 69°
2026-05-04 18:23 50.04183 8.58365 374 ft 19 kts 69°
2026-05-04 18:23 50.04233 8.58563 375 ft 19 kts 62°
2026-05-04 18:23 50.04330 8.58623 375 ft 1 kts
2026-05-04 18:25 50.04332 8.58624 375 ft 2 kts
2026-05-04 18:25 50.04356 8.58628 375 ft 5 kts
2026-05-04 18:25 50.04399 8.58637 376 ft 8 kts
2026-05-04 18:26 50.04456 8.58621 376 ft 9 kts 323°
2026-05-04 18:26 50.04469 8.58547 376 ft 7 kts 258°
2026-05-04 18:26 50.04463 8.58518 376 ft 0 kts 251°
2026-05-04 18:27 50.04431 8.58368 375 ft 52 kts 251°
2026-05-04 18:27 50.04214 8.57452 370 ft 129 kts 250°
2026-05-04 18:27 50.03819 8.55786 575 ft 177 kts 249°
2026-05-04 18:27 50.03385 8.54000 1371 ft 175 kts 249°
2026-05-04 18:28 50.02969 8.52278 2258 ft 172 kts 249°
2026-05-04 18:28 50.02705 8.50360 2564 ft 194 kts 268°
2026-05-04 18:28 50.02798 8.48142 2808 ft 216 kts 276°
2026-05-04 18:28 50.03002 8.45758 3202 ft 226 kts 277°
2026-05-04 18:29 50.03292 8.43332 3676 ft 231 kts 286°
2026-05-04 18:29 50.04120 8.41215 4219 ft 230 kts 315°
2026-05-04 18:29 50.05284 8.39698 4817 ft 229 kts 322°
2026-05-04 18:29 50.06586 8.38193 5426 ft 230 kts 323°
2026-05-04 18:30 50.09157 8.35200 6566 ft 235 kts 322°
2026-05-04 18:30 50.10555 8.33744 7047 ft 242 kts 332°
2026-05-04 18:30 50.12154 8.32991 7549 ft 247 kts 354°
2026-05-04 18:31 50.13864 8.33229 8104 ft 249 kts 13°
2026-05-04 18:31 50.15543 8.33983 8652 ft 252 kts 17°
2026-05-04 18:31 50.17221 8.34812 9177 ft 255 kts 17°
2026-05-04 18:31 50.18917 8.35644 9684 ft 257 kts 17°
2026-05-04 18:32 50.20635 8.36473 10178 ft 259 kts 17°
2026-05-04 18:32 50.22378 8.37308 10606 ft 266 kts 17°
2026-05-04 18:32 50.24162 8.38158 11104 ft 269 kts 17°
2026-05-04 18:32 50.25956 8.39011 11611 ft 271 kts 17°
2026-05-04 18:33 50.27771 8.39874 12099 ft 273 kts 17°
2026-05-04 18:33 50.29597 8.40741 12560 ft 276 kts 17°
2026-05-04 18:33 50.31427 8.41695 13002 ft 278 kts 19°
2026-05-04 18:33 50.33258 8.42716 13426 ft 280 kts 19°
2026-05-04 18:34 50.35100 8.43742 13830 ft 283 kts 19°
2026-05-04 18:34 50.36960 8.44770 14219 ft 285 kts 19°
2026-05-04 18:34 50.38839 8.45803 14592 ft 287 kts 19°
2026-05-04 18:34 50.40725 8.46837 14947 ft 289 kts 19°
2026-05-04 18:35 50.42628 8.47880 15287 ft 290 kts 19°
2026-05-04 18:35 50.44541 8.48928 15611 ft 292 kts 19°
2026-05-04 18:35 50.46470 8.49985 15925 ft 294 kts 19°
2026-05-04 18:35 50.48406 8.51030 16223 ft 296 kts 18°
2026-05-04 18:36 50.50381 8.51980 16513 ft 297 kts 16°
2026-05-04 18:36 50.52363 8.52903 16792 ft 299 kts 16°
2026-05-04 18:36 50.54369 8.53845 17064 ft 300 kts 16°
2026-05-04 18:36 50.56374 8.54795 17327 ft 302 kts 17°
2026-05-04 18:37 50.58387 8.55754 17581 ft 303 kts 17°
2026-05-04 18:37 50.60414 8.56723 17828 ft 305 kts 17°
2026-05-04 18:37 50.62374 8.57663 18058 ft 306 kts 17°
2026-05-04 18:37 50.64412 8.58642 18291 ft 307 kts 17°
2026-05-04 18:38 50.66466 8.59629 18511 ft 309 kts 17°
2026-05-04 18:38 50.68524 8.60620 18723 ft 310 kts 17°
2026-05-04 18:38 50.70588 8.61614 18929 ft 311 kts 17°
2026-05-04 18:38 50.72665 8.62617 19129 ft 312 kts 17°
2026-05-04 18:39 50.74746 8.63616 19321 ft 314 kts 17°
2026-05-04 18:39 50.76833 8.64614 19505 ft 315 kts 15°
2026-05-04 18:39 50.78991 8.65250 19668 ft 316 kts
2026-05-04 18:39 50.81174 8.65012 19828 ft 316 kts 347°
2026-05-04 18:40 50.83233 8.63824 19981 ft 316 kts 330°
2026-05-04 18:40 50.85007 8.61787 20132 ft 316 kts 316°
2026-05-04 18:40 50.86553 8.59304 20289 ft 317 kts 311°
2026-05-04 18:40 50.87518 8.57571 20392 ft 317 kts 310°
2026-05-04 18:41 50.89405 8.53959 20604 ft 319 kts 308°
2026-05-04 18:41 50.90329 8.52151 20705 ft 319 kts 308°
2026-05-04 18:41 50.91731 8.49417 20855 ft 320 kts 309°
2026-05-04 18:41 50.93148 8.46686 21005 ft 321 kts 309°
2026-05-04 18:42 50.94577 8.43964 21154 ft 322 kts 309°
2026-05-04 18:42 50.96017 8.41244 21299 ft 323 kts 309°
2026-05-04 18:42 50.97490 8.38476 21444 ft 324 kts 309°
2026-05-04 18:42 50.98924 8.35784 21580 ft 325 kts 309°
2026-05-04 18:43 51.00439 8.33053 21711 ft 326 kts 314°
2026-05-04 18:43 51.02125 8.30643 21839 ft 327 kts 322°
2026-05-04 18:43 51.04002 8.28606 21963 ft 328 kts 327°
2026-05-04 18:43 51.05956 8.26724 21999 ft 328 kts 329°
2026-05-04 18:44 51.07937 8.24930 22001 ft 328 kts 330°
2026-05-04 18:44 51.09263 8.23760 22000 ft 329 kts 330°
2026-05-04 18:44 51.11946 8.21417 22000 ft 329 kts 330°
2026-05-04 18:44 51.13950 8.19665 21999 ft 329 kts 330°
2026-05-04 18:45 51.15957 8.17898 22000 ft 329 kts 330°
2026-05-04 18:45 51.17956 8.16126 22000 ft 329 kts 330°
2026-05-04 18:45 51.19954 8.14347 22000 ft 329 kts 330°
2026-05-04 18:45 51.21949 8.12563 22000 ft 329 kts 330°
2026-05-04 18:46 51.23944 8.10775 22000 ft 329 kts 330°
2026-05-04 18:46 51.25938 8.08987 22000 ft 329 kts 330°
2026-05-04 18:46 51.27936 8.07193 22000 ft 329 kts 330°
2026-05-04 18:46 51.29928 8.05403 22000 ft 329 kts 330°
2026-05-04 18:47 51.31921 8.03611 21999 ft 329 kts 330°
2026-05-04 18:47 51.33917 8.01815 21942 ft 328 kts 330°
2026-05-04 18:47 51.35908 8.00023 21743 ft 328 kts 330°
2026-05-04 18:47 51.37884 7.98242 21330 ft 324 kts 330°
2026-05-04 18:48 51.39837 7.96483 20841 ft 322 kts 330°
2026-05-04 18:48 51.41807 7.94707 20335 ft 323 kts 330°
2026-05-04 18:48 51.43749 7.92955 19840 ft 318 kts 330°
2026-05-04 18:48 51.45659 7.91231 19345 ft 314 kts 330°
2026-05-04 18:49 51.47550 7.89525 18849 ft 310 kts 330°
2026-05-04 18:49 51.49428 7.87829 18357 ft 309 kts 330°
2026-05-04 18:49 51.51287 7.86150 17861 ft 305 kts 330°
2026-05-04 18:49 51.53107 7.84505 17370 ft 302 kts 330°
2026-05-04 18:50 51.54951 7.82839 16866 ft 299 kts 330°
2026-05-04 18:50 51.56708 7.81101 16414 ft 296 kts 322°
2026-05-04 18:50 51.58156 7.78752 16379 ft 295 kts 304°
2026-05-04 18:50 51.59017 7.75807 16378 ft 291 kts 282°
2026-05-04 18:51 51.59073 7.72589 16380 ft 289 kts 258°
2026-05-04 18:51 51.58274 7.69650 16265 ft 287 kts 232°
2026-05-04 18:51 51.56864 7.67410 16052 ft 287 kts 211°
2026-05-04 18:51 51.55101 7.65894 16000 ft 288 kts 206°
2026-05-04 18:52 51.53314 7.64419 15998 ft 289 kts 208°
2026-05-04 18:52 51.51557 7.62866 16000 ft 288 kts 210°
2026-05-04 18:52 51.49820 7.61255 15912 ft 288 kts 211°
2026-05-04 18:52 51.48109 7.59625 15469 ft 285 kts 211°
2026-05-04 18:53 51.46411 7.57976 15008 ft 284 kts 212°
2026-05-04 18:53 51.44817 7.56132 14583 ft 282 kts 221°
2026-05-04 18:53 51.43510 7.53820 14183 ft 280 kts 235°
2026-05-04 18:53 51.42602 7.51072 14009 ft 280 kts 253°
2026-05-04 18:54 51.42265 7.48007 14000 ft 279 kts 265°
2026-05-04 18:54 51.42156 7.44908 13999 ft 279 kts 268°
2026-05-04 18:54 51.42115 7.41803 14000 ft 279 kts 269°
2026-05-04 18:54 51.42102 7.38698 14000 ft 279 kts 269°
2026-05-04 18:55 51.42103 7.35595 14000 ft 279 kts 270°
2026-05-04 18:55 51.42121 7.29387 14000 ft 279 kts 270°
2026-05-04 18:55 51.42133 7.26288 14000 ft 279 kts 270°
2026-05-04 18:56 51.42178 7.23181 13997 ft 279 kts 275°
2026-05-04 18:56 51.42710 7.20208 14002 ft 279 kts 299°
2026-05-04 18:56 51.43990 7.17918 13997 ft 278 kts 324°
2026-05-04 18:56 51.45682 7.16579 13544 ft 269 kts 340°
2026-05-04 18:57 51.47471 7.15650 12703 ft 272 kts 342°
2026-05-04 18:57 51.49291 7.14785 11942 ft 272 kts 343°
2026-05-04 18:57 51.51097 7.13936 11245 ft 269 kts 343°
2026-05-04 18:57 51.52885 7.13096 10571 ft 266 kts 343°
2026-05-04 18:58 51.54651 7.12267 10135 ft 264 kts 343°
2026-05-04 18:58 51.56415 7.11403 10001 ft 265 kts 339°
2026-05-04 18:58 51.57934 7.09803 9999 ft 261 kts 311°
2026-05-04 18:58 51.58833 7.07304 10005 ft 259 kts 288°
2026-05-04 18:59 51.59317 7.04688 9819 ft 250 kts 284°
2026-05-04 18:59 51.59738 7.02000 9107 ft 248 kts 283°
2026-05-04 18:59 51.60150 6.99286 8275 ft 250 kts 283°
2026-05-04 18:59 51.60545 6.96569 7550 ft 248 kts 280°
2026-05-04 19:00 51.60454 6.93830 7122 ft 248 kts 251°
2026-05-04 19:00 51.59520 6.91546 7003 ft 247 kts 221°
2026-05-04 19:00 51.57996 6.90244 7001 ft 246 kts 198°
2026-05-04 19:00 51.56323 6.89530 6998 ft 245 kts 193°
2026-05-04 19:01 51.54660 6.88915 6999 ft 245 kts 193°
2026-05-04 19:01 51.52996 6.88310 7000 ft 245 kts 193°
2026-05-04 19:01 51.51332 6.87706 7000 ft 245 kts 193°
2026-05-04 19:01 51.49666 6.87101 7000 ft 245 kts 193°
2026-05-04 19:02 51.48001 6.86498 7000 ft 245 kts 193°
2026-05-04 19:02 51.46319 6.86043 6992 ft 246 kts 182°
2026-05-04 19:02 51.44665 6.86660 7001 ft 247 kts 153°
2026-05-04 19:02 51.43408 6.88505 7001 ft 248 kts 123°
2026-05-04 19:03 51.42873 6.91108 7000 ft 249 kts 94°
2026-05-04 19:03 51.43201 6.93813 6999 ft 251 kts 64°
2026-05-04 19:03 51.44238 6.96063 6984 ft 253 kts 46°
2026-05-04 19:03 51.45485 6.98031 6997 ft 251 kts 43°
2026-05-04 19:04 51.46756 6.99950 7000 ft 251 kts 43°
2026-05-04 19:04 51.48031 7.01865 7000 ft 251 kts 43°
2026-05-04 19:04 51.49303 7.03775 7000 ft 251 kts 43°
2026-05-04 19:04 51.50575 7.05688 7000 ft 251 kts 43°
2026-05-04 19:05 51.51849 7.07603 7000 ft 251 kts 43°
2026-05-04 19:05 51.53120 7.09515 7000 ft 251 kts 43°
2026-05-04 19:05 51.54393 7.11430 7019 ft 251 kts 43°
2026-05-04 19:05 51.55616 7.13439 6720 ft 254 kts 54°
2026-05-04 19:06 51.56259 7.16029 6356 ft 250 kts 84°
2026-05-04 19:06 51.56042 7.18748 5998 ft 246 kts 113°
2026-05-04 19:06 51.55037 7.20910 5614 ft 243 kts 143°
2026-05-04 19:06 51.53515 7.21966 5228 ft 240 kts 173°
2026-05-04 19:07 51.51880 7.21705 4865 ft 237 kts 197°
2026-05-04 19:07 51.50343 7.20800 4514 ft 235 kts 202°
2026-05-04 19:07 51.48765 7.20190 4101 ft 235 kts 179°
2026-05-04 19:07 51.47137 7.20315 3740 ft 233 kts 182°
2026-05-04 19:08 51.45616 7.19526 3352 ft 231 kts 214°
2026-05-04 19:08 51.44571 7.17627 3086 ft 228 kts 240°
2026-05-04 19:08 51.43860 7.15349 3026 ft 228 kts 245°
2026-05-04 19:08 51.43223 7.13014 3026 ft 229 kts 247°
2026-05-04 19:09 51.42632 7.10656 3036 ft 228 kts 248°
2026-05-04 19:09 51.42074 7.08288 3043 ft 227 kts 249°
2026-05-04 19:09 51.41531 7.05904 3028 ft 228 kts 250°
2026-05-04 19:09 51.40995 7.03503 3027 ft 229 kts 250°
2026-05-04 19:10 51.40470 7.01140 3026 ft 214 kts 250°
2026-05-04 19:10 51.39845 6.99077 3041 ft 201 kts 237°
2026-05-04 19:10 51.39072 6.97353 3034 ft 198 kts 232°
2026-05-04 19:10 51.38222 6.95621 2909 ft 197 kts 232°
2026-05-04 19:11 51.37398 6.93879 2645 ft 196 kts 233°
2026-05-04 19:11 51.36578 6.92141 2367 ft 196 kts 232°
2026-05-04 19:11 51.35753 6.90405 2100 ft 195 kts 232°
2026-05-04 19:11 51.34934 6.88680 1840 ft 195 kts 232°
2026-05-04 19:12 51.34107 6.86939 1576 ft 192 kts 232°
2026-05-04 19:12 51.32627 6.83835 1085 ft 162 kts 232°
2026-05-04 19:12 51.31962 6.82448 866 ft 152 kts 232°
2026-05-04 19:13 51.31313 6.81100 716 ft 151 kts 232°
2026-05-04 19:13 51.30697 6.79783 533 ft 152 kts 236°
2026-05-04 19:13 51.30086 6.78418 312 ft 152 kts 228°
2026-05-04 19:13 51.29419 6.77166 132 ft 142 kts 233°
2026-05-04 19:14 51.28927 6.76067 126 ft 81 kts 233°
2026-05-04 19:14 51.28706 6.75706 124 ft 36 kts 200°
2026-05-04 19:14 51.28600 6.75684 124 ft 2 kts 172°
2026-05-04 19:14 51.28574 6.75692 124 ft 5 kts 169°
2026-05-04 19:15 51.28540 6.75709 124 ft 5 kts 160°
2026-05-04 19:15 51.28522 6.75722 124 ft 4 kts 155°
2026-05-04 19:15 51.28504 6.75737 124 ft 0 kts 151°
2026-05-04 19:16 51.28500 6.75741 124 ft 4 kts 150°
2026-05-04 19:16 51.28459 6.75786 124 ft 0 kts 144°
2026-05-04 19:21 51.28457 6.75788 124 ft 0 kts 144°
2026-05-04 19:22 51.28457 6.75789 124 ft 0 kts 144°
2026-05-04 19:22 51.28436 6.75812 124 ft 7 kts 144°
2026-05-04 19:23 51.28395 6.75859 124 ft 12 kts 143°
2026-05-04 19:23 51.28323 6.75947 123 ft 13 kts 143°
2026-05-04 19:23 51.28247 6.75983 124 ft 15 kts 185°
2026-05-04 19:23 51.28181 6.75943 124 ft 9 kts 204°
2026-05-04 19:24 51.28162 6.75929 124 ft 0 kts 204°
2026-05-04 19:28 51.28104 6.75888 124 ft 17 kts 205°
2026-05-04 19:28 51.28016 6.75779 124 ft 14 kts 232°
2026-05-04 19:28 51.27960 6.75662 124 ft 12 kts 232°
2026-05-04 19:29 51.27911 6.75561 124 ft 11 kts 233°
2026-05-04 19:29 51.27869 6.75472 124 ft 9 kts 233°
2026-05-04 19:29 51.27831 6.75398 124 ft 8 kts 221°
2026-05-04 19:29 51.27788 6.75388 124 ft 7 kts 169°
2026-05-04 19:30 51.27719 6.75444 124 ft 15 kts 152°
2026-05-04 19:30 51.27662 6.75494 124 ft 2 kts 153°
2026-05-04 19:30 51.27622 6.75505 124 ft 6 kts 174°
2026-05-04 19:30 51.27601 6.75524 124 ft 3 kts 127°
2026-05-04 19:31 51.27601 6.75545 124 ft 1 kts 81°
2026-05-04 19:31 51.27604 6.75551 124 ft 0 kts 68°
2026-05-04 19:31 51.27605 6.75556 124 ft 0 kts 69°
2026-05-04 19:32 51.27607 6.75566 124 ft 1 kts 68°
2026-05-04 19:32 51.27610 6.75574 124 ft 0 kts 66°
2026-05-04 19:32 51.27609 6.75575 124 ft 0 kts 66°
2026-05-04 19:33 51.27611 6.75585 124 ft 0 kts 63°